DW8947 Weather Reports


Display with metric or nautical units.
time (UTC)temp
F
wind
direction
speed
MPH
gust
MPH
rain 1hr
in
rain 24hr
in
rain mn
in
humidity
%
barometer
mb
20260507012703 56 85 0.0 2.0 0.00 0.00 0.00 83 1018.7
20260507012204 56 85 0.0 2.0 0.00 0.00 0.00 83 1018.7
20260507011203 56 85 0.0 2.0 0.00 0.00 0.00 83 1018.8
20260507010703 56 85 0.0 1.0 0.00 0.00 0.00 82 1018.7
20260507010204 56 85 0.0 2.0 0.00 0.00 0.00 82 1018.7
20260507005204 57 85 0.0 2.0 0.00 0.00 0.00 81 1018.7
20260507003704 57 85 0.0 2.0 0.00 0.00 0.00 81 1018.8
20260507002703 57 138 0.0 2.0 0.00 0.00 0.00 82 1018.7
20260507002203 57 150 0.0 2.0 0.00 0.00 0.00 82 1018.7
20260507001204 57 150 0.0 2.0 0.00 0.00 0.00 81 1018.7
20260506234204 57 163 0.0 1.0 0.00 0.00 0.00 80 1018.7
20260506233705 57 163 0.0 2.0 0.00 0.00 0.00 80 1018.7
20260506233205 57 163 0.0 2.0 0.00 0.00 0.00 81 1018.8
20260506232705 57 163 0.0 2.0 0.00 0.00 0.00 80 1018.8
20260506230705 58 163 0.0 2.0 0.00 0.00 0.00 78 1018.8
20260506225705 58 163 0.0 2.0 0.00 0.00 0.00 79 1018.8
20260506224704 58 163 0.0 2.0 0.00 0.00 0.00 78 1018.9
20260506224205 58 163 0.0 2.0 0.00 0.00 0.00 77 1018.9
20260506223705 58 163 0.0 0.0 0.00 0.00 0.00 77 1018.9
20260506222705 58 163 0.0 2.0 0.00 0.00 0.00 76 1018.9
20260506221705 58 163 0.0 2.0 0.00 0.00 0.00 76 1018.9
20260506221205 58 163 0.0 2.0 0.00 0.00 0.00 76 1018.9
20260506220705 58 163 0.0 2.0 0.00 0.00 0.00 77 1019.0
20260506220204 58 163 0.0 2.0 0.00 0.00 0.00 77 1018.9
20260506215705 58 163 0.0 2.0 0.00 0.00 0.00 77 1018.9
20260506213705 57 163 0.0 2.0 0.00 0.00 0.00 76 1019.0
20260506213205 57 163 0.0 2.0 0.00 0.00 0.00 75 1018.9
20260506211705 58 249 0.0 2.0 0.00 0.00 0.00 76 1019.0
20260506210705 58 242 0.0 2.0 0.00 0.00 0.00 76 1019.1
20260506205205 57 210 0.0 2.0 0.00 0.00 0.00 77 1019.0
20260506204705 57 338 0.0 2.0 0.00 0.00 0.00 77 1019.0
20260506203704 57 318 0.0 1.0 0.00 0.00 0.00 76 1018.9
20260506203205 57 318 0.0 2.0 0.00 0.00 0.00 78 1018.9
20260506200704 57 221 0.0 2.0 0.00 0.00 0.00 80 1018.9
20260506195705 56 196 0.0 2.0 0.00 0.00 0.00 80 1018.9
20260506194705 56 182 0.0 2.0 0.00 0.00 0.00 80 1018.9
20260506193704 57 200 0.0 1.0 0.00 0.00 0.00 79 1018.8
20260506191705 57 197 0.0 1.0 0.00 0.00 0.00 79 1018.6
20260506191205 57 169 0.0 2.0 0.00 0.00 0.00 79 1018.6
20260506190705 57 169 0.0 2.0 0.00 0.00 0.00 78 1018.6
20260506190205 57 144 0.0 2.0 0.00 0.00 0.00 79 1018.6
20260506185205 56 187 0.0 2.0 0.00 0.00 0.00 81 1018.6
20260506184204 56 270 0.0 2.0 0.00 0.00 0.00 82 1018.6
20260506183705 56 289 0.0 2.0 0.00 0.00 0.00 83 1018.6
20260506183204 55 233 0.0 2.0 0.00 0.00 0.00 82 1018.6
20260506182704 55 249 0.0 2.0 0.00 0.00 0.00 84 1018.5
20260506181704 55 98 1.0 2.0 0.00 0.00 0.00 84 1018.6
20260506180705 54 291 0.0 2.0 0.00 0.00 0.00 86 1018.5
20260506180205 54 181 0.0 1.0 0.00 0.00 0.00 88 1018.5
20260506174704 54 327 0.0 2.0 0.00 0.00 0.00 91 1018.6
20260506172704 54 114 0.0 2.0 0.00 0.00 0.00 90 1018.2
20260506172205 54 114 1.0 2.0 0.00 0.00 0.00 90 1018.1
20260506171204 54 114 0.0 2.0 0.00 0.00 0.00 90 1018.3
20260506165705 54 106 0.0 1.0 0.00 0.00 0.00 90 1018.2
20260506162705 54 160 0.0 2.0 0.00 0.00 0.00 90 1018.3
20260506162205 54 158 0.0 2.0 0.00 0.00 0.00 90 1018.3
20260506161705 54 87 0.0 2.0 0.00 0.00 0.00 90 1018.2
20260506161204 54 82 0.0 2.0 0.00 0.00 0.00 90 1018.2
20260506160206 53 65 0.0 2.0 0.00 0.00 0.00 91 1017.9
20260506155706 54 170 1.0 2.0 0.00 0.00 0.00 91 1017.7
20260506155205 53 173 0.0 2.0 0.00 0.00 0.00 91 1017.6
20260506154705 53 205 0.0 2.0 0.00 0.00 0.00 91 1017.6
20260506152705 53 152 0.0 2.0 0.00 0.00 0.00 90 1017.7
20260506152205 53 152 0.0 1.0 0.00 0.00 0.00 90 1017.8
20260506151204 54 152 0.0 2.0 0.00 0.00 0.00 89 1017.7
20260506150704 54 152 0.0 2.0 0.00 0.00 0.00 89 1017.9
20260506145705 54 152 0.0 2.0 0.00 0.00 0.00 88 1018.0
20260506143204 53 144 0.0 2.0 0.00 0.00 0.00 89 1017.5
20260506142705 53 102 0.0 2.0 0.00 0.00 0.00 89 1017.7
20260506142205 53 105 0.0 2.0 0.00 0.00 0.00 89 1017.6
20260506141705 53 105 0.0 2.0 0.00 0.00 0.00 89 1017.6
20260506140705 53 105 0.0 2.0 0.00 0.00 0.00 89 1017.6
20260506134705 53 215 0.0 2.0 0.00 0.00 0.00 89 1017.3
20260506133705 53 215 0.0 2.0 0.00 0.00 0.00 89 1017.4
20260506131704 53 237 0.0 2.0 0.00 0.00 0.00 90 1017.2
20260506131205 53 237 0.0 2.0 0.00 0.00 0.00 90 1017.3
20260506130705 53 237 0.0 2.0 0.00 0.00 0.00 91 1017.3
20260506130204 53 237 0.0 2.0 0.00 0.00 0.00 91 1017.2
20260506125204 53 237 0.0 1.0 0.00 0.00 0.00 91 1017.0
20260506124205 53 237 0.0 2.0 0.00 0.00 0.00 91 1016.7
20260506123705 53 237 0.0 2.0 0.00 0.00 0.00 91 1016.8
20260506122705 53 237 0.0 2.0 0.00 0.00 0.00 91 1016.9
20260506122204 53 237 0.0 1.0 0.00 0.00 0.00 91 1017.0
20260506121204 53 237 0.0 1.0 0.00 0.00 0.00 91 1016.8
20260506120705 53 237 0.0 2.0 0.00 0.00 0.00 91 1016.8
20260506115705 53 237 0.0 2.0 0.00 0.00 0.00 91 1016.8
20260506115205 53 237 0.0 2.0 0.00 0.00 0.00 90 1016.7
20260506114704 53 237 0.0 2.0 0.00 0.00 0.00 90 1016.6
20260506114204 53 237 0.0 2.0 0.00 0.00 0.00 90 1016.6
20260506113705 53 237 0.0 2.0 0.00 0.00 0.00 91 1016.6
20260506112204 53 237 0.0 2.0 0.00 0.00 0.00 91 1016.4
20260506111705 53 237 0.0 1.0 0.00 0.00 0.00 91 1016.3
20260506111205 53 221 0.0 2.0 0.00 0.00 0.00 92 1016.3
20260506110205 52 208 0.0 2.0 0.00 0.00 0.00 92 1016.3
20260506103205 52 181 0.0 2.0 0.00 0.00 0.00 93 1016.1
20260506102204 52 181 0.0 0.0 0.00 0.00 0.00 93 1016.1
20260506101205 51 181 0.0 0.0 0.00 0.00 0.00 93 1016.1
20260506100205 51 181 0.0 0.0 0.00 0.00 0.00 93 1016.0
20260506095205 52 181 0.0 0.0 0.00 0.00 0.00 92 1015.9
20260506094705 52 181 0.0 0.0 0.00 0.00 0.00 92 1015.8
20260506094205 52 181 0.0 0.0 0.00 0.00 0.00 92 1015.8
20260506093205 52 181 0.0 0.0 0.00 0.00 0.00 92 1015.7
20260506092705 52 181 0.0 0.0 0.00 0.00 0.00 92 1015.6
20260506091705 52 181 0.0 0.0 0.00 0.00 0.00 92 1015.6
20260506090205 52 181 0.0 0.0 0.00 0.00 0.00 92 1015.6
20260506085205 52 181 0.0 0.0 0.00 0.00 0.00 92 1015.5
20260506084204 53 181 0.0 0.0 0.00 0.00 0.00 91 1015.4
20260506083204 53 181 0.0 0.0 0.00 0.00 0.00 91 1015.3
20260506082205 53 181 0.0 0.0 0.00 0.00 0.00 91 1015.3
20260506081704 53 181 0.0 0.0 0.00 0.00 0.00 91 1015.2
20260506080205 53 181 0.0 0.0 0.00 0.00 0.00 90 1015.1
20260506073205 54 181 0.0 0.0 0.00 0.00 0.00 90 1015.0
20260506072705 54 181 0.0 0.0 0.00 0.00 0.00 89 1014.9
20260506072205 54 181 0.0 0.0 0.00 0.00 0.00 89 1014.9
20260506071205 54 181 0.0 0.0 0.00 0.00 0.00 89 1014.8
20260506070205 55 181 0.0 0.0 0.00 0.00 0.00 88 1014.8
20260506061205 56 181 0.0 2.0 0.00 0.00 0.00 87 1014.5
20260506060704 56 181 0.0 0.0 0.00 0.00 0.00 86 1014.5
20260506060204 57 181 0.0 0.0 0.00 0.00 0.00 86 1014.4
20260506050705 57 181 0.0 0.0 0.00 0.00 0.00 86 1013.8
20260506050205 57 181 0.0 2.0 0.00 0.00 0.00 86 1013.8
20260506044705 57 181 0.0 2.0 0.00 0.00 0.00 85 1013.6
20260506044205 57 181 0.0 0.0 0.00 0.00 0.00 85 1013.7
20260506043204 58 181 0.0 2.0 0.00 0.00 0.00 85 1013.6
20260506042205 58 181 0.0 0.0 0.00 0.00 0.00 84 1013.6
20260506041704 58 181 0.0 2.0 0.00 0.00 0.00 84 1013.6
20260506041204 58 181 0.0 0.0 0.00 0.00 0.00 84 1013.5
20260506040205 58 181 0.0 1.0 0.00 0.00 0.00 84 1013.4
20260506035204 58 181 0.0 1.0 0.00 0.00 0.00 84 1013.4
20260506034704 58 181 0.0 1.0 0.00 0.00 0.00 84 1013.3
20260506034205 58 181 0.0 0.0 0.00 0.00 0.00 83 1013.3
20260506033705 58 181 0.0 1.0 0.00 0.00 0.00 83 1013.3
20260506033205 58 181 0.0 1.0 0.00 0.00 0.00 83 1013.3
20260506031704 59 181 0.0 0.0 0.00 0.00 0.00 82 1013.2
20260506030704 59 181 0.0 0.0 0.00 0.00 0.00 82 1013.1
20260506030205 59 181 0.0 2.0 0.00 0.00 0.00 82 1013.2
20260506025204 59 181 0.0 2.0 0.00 0.00 0.00 81 1013.1
20260506024705 60 181 0.0 0.0 0.00 0.00 0.00 81 1013.1
20260506023205 60 181 0.0 1.0 0.00 0.00 0.00 80 1013.1
20260506021705 61 181 0.0 0.0 0.00 0.00 0.00 79 1013.1
20260506020704 61 181 0.0 1.0 0.00 0.00 0.00 79 1013.0